Regional Weather Roundup
Issued by NWS

Home | Current Version | Previous Version | Text Only | Print | Product List | Glossary Off
Versions: 1 2 3 4 5 6 7 8 9 10 11 12 13 14 15 16 17 18 19 20 21 22 23 24 25 26 27 28 29 30 31 32 33 34 35 36 37 38 39 40 41 42 43 44 45 46 47 48 49 50

000
ASUS43 KIND 212009
RWRIN

WEATHER ROUNDUP FOR INDIANA
NATIONAL WEATHER SERVICE INDIANAPOLIS IN
400 PM EDT MON MAY 21 2018

NOTE: "FAIR" INDICATES FEW OR NO CLOUDS BELOW 12,000 FEET WITH NO
SIGNIFICANT WEATHER AND/OR OBSTRUCTIONS TO VISIBILITY.

* - STATION DOES NOT REPORT WEATHER SUCH AS PRECIPITATION OR FOG.

+ - STATION NOT QUALITY CONTROLLED BY THE NATIONAL WEATHER SERVICE.
    USE DATA WITH CAUTION...ESPECIALLY DEWPOINT AND RELATIVE
    HUMIDITY OBSERVATIONS.

INZ001>003-010>013-019-020-212100-
NORTHWEST INDIANA

CITY           SKY/WX    TMP DP  RH WIND       PRES   REMARKS
GARY /AIRPORT/ CLOUDY    68  63  83 SE5       30.04F FOG
KNOX *+        CLOUDY    64  59  82 SE13      30.06F
LA PORTE +     PTSUNNY   62  58  89 SE9       30.08S
MICHIGAN CITY+ PTSUNNY   61  57  88 SE6       30.07S
MONTICELLO +   CLOUDY    70  69  96 CALM      30.04F FOG
RENSSELAER +   PTSUNNY   72  61  68 SE9       30.04S
VALPARAISO     FAIR      67  62  84 E8        30.05F

$$

LMZ046-743>745-212100-
SOUTHERN LAKE MICHIGAN

STATION/POSITION TIME  TEMP    WIND        PRES    WAVE
                       AIR SEA DIR/SP/G            HT
                 (UTC) (F)     (DEG/KT/KT) (MB)    (FT)
BURNS HARBOR     1940   65        CALM     1017.9F
MICHIGAN CITY    1940   62     110/  6/  9   N/A
5NW MICH CITY    2000   58 53  120/  6/  8   N/A     1

$$

INZ004-005-014>016-021>024-212100-
NORTH CENTRAL INDIANA

CITY           SKY/WX    TMP DP  RH WIND       PRES   REMARKS
ELKHART        PTSUNNY   59  55  88 SE9       30.09F
GOSHEN         CLOUDY    62  58  86 E7        30.10F
LOGANSPORT +   PTSUNNY   70  66  88 E5        30.06F FOG
ROCHESTER +    DRIZZLE   68  63  83 E7        30.08F
SOUTH BEND     CLOUDY    59  55  87 SE13      30.10F
WARSAW +       CLOUDY    63  59  88 SE7       30.11R

$$

INZ006>009-017-018-025>027-212100-
NORTHEAST INDIANA

CITY           SKY/WX    TMP DP  RH WIND       PRES   REMARKS
ANGOLA *+      FAIR      59  55  88 E7        30.12F
AUBURN +       PTSUNNY   59  59 100 NE6       30.12S
FORT WAYNE     LGT RAIN  65  61  87 N9        30.11S
HUNTINGTON +   LGT RAIN  64  63  96 NE6       30.09S

$$

INZ028-029-035-036-043>045-051>053-212100-
WEST CENTRAL INDIANA

CITY           SKY/WX    TMP DP  RH WIND       PRES   REMARKS
CRAWFORDSVL +  LGT RAIN  74  67  79 S3        30.06S
GREENCASTLE +  FAIR      77  63  61 CALM      30.06F
LAFAYETTE      PTSUNNY   73  69  87 CALM      30.04F
TERRE HAUTE    LGT RAIN  80  65  59 SW7       30.04F

$$

INZ030>032-037>040-046>048-054>057-064-065-212100-
CENTRAL INDIANA

CITY           SKY/WX    TMP DP  RH WIND       PRES   REMARKS
ANDERSON       MOSUNNY   81  64  57 W6        30.07S
COLUMBUS       PTSUNNY   84  59  42 SW7       30.03F
FISHERS *+     FAIR     N/A N/A N/A N5        30.05F
FRANKFORT +    FAIR      76  68  76 CALM      30.07F
GREENWOOD *+   CLOUDY    80  64  57 CALM      30.05F
INDIANAPOLIS   CLOUDY    82  65  56 SW3       30.04F
-EAGLE CREEK   LGT RAIN  81  64  56 VRB3      30.04F
KOKOMO +       LGT RAIN  73  68  84 CALM      30.07F
MARION +       CLOUDY    73  66  80 CALM      30.08F HAZE
MT COMFORT *+  PTSUNNY   81  68  65 SW5       30.06F
SHELBYVILLE    FAIR      85  64  49 MISG      30.03F
ZIONSVILLE +   FAIR      76  64  66 CALM      30.07F

$$

INZ033-034-041-042-049-050-058-059-212100-
EAST CENTRAL INDIANA

CITY           SKY/WX    TMP DP  RH WIND       PRES   REMARKS
MUNCIE         PTSUNNY   82  64  54 CALM      30.06S
RICHMOND +     FAIR      81  63  54 SW6       30.07F

$$

INZ060-061-067>069-081>083-085>088-212100-
SOUTHWEST INDIANA

CITY           SKY/WX    TMP DP  RH WIND       PRES   REMARKS
EVANSVILLE     CLOUDY    80  71  74 W7        30.01F THUNDER
HUNTINGBURG +  PTSUNNY   86  68  54 S12G18    30.00F
WASHINGTON +   PTSUNNY   84  61  46 SW5       30.01F

$$

INZ062-063-066-070>080-084-089>092-212100-
SOUTH CENTRAL AND SOUTHEAST INDIANA

CITY           SKY/WX    TMP DP  RH WIND       PRES   REMARKS
BATESVILLE +   MOSUNNY   84  64  51 VRB5      30.05F
BEDFORD +      PTSUNNY   86  59  39 W5        30.03F
BLOOMINGTON    PTSUNNY   83  66  56 S6        30.04F
FRENCH LICK *+ FAIR      82  59  44 SE7       30.02F
MADISON *+     FAIR      84  63  48 SE7       30.07F
NORTH VERNON + FAIR      82  64  54 S9        30.03F
SEYMOUR +      PTSUNNY   88  64  45 S13G23    30.02F

$$





USA.gov is the U.S. government's official web portal to all federal, state and local government web resources and services.